Location: *
(57.8420°S, 159.8600°W)
Time: 05:18:59
(UTC+00:00)

Cosmos 1825 - Pass Details

Date: 18 May 2021
Orbit: 500 x 507 km, 82.5° (Epoch: 20 June)

Event Time Altitude Azimuth Distance (km) Brightness Sun altitude
Rises 04:54:48 0° 328° (NNW) 2,615 6.4 -19.0°
Reaches altitude 10° 04:57:01 10° 320° (NW) 1,737 5.5 -19.3°
Maximum altitude 05:00:37 39° 249° (WSW) 788 3.6 -19.8°
Drops below altitude 10° 05:04:16 10° 178° (S) 1,758 4.8 -20.2°
Enters shadow 05:04:55 - 175° (S) 2,009 5.1 -20.3°
